THORAD AGENA D DEB, 4743

Orbit data source: Space-Track

THORAD AGENA D DEB, 4743 is space debris in SSO originally from a launch on Wed, 08 Apr 1970 UTC launched from the Air Force Western Test Range (AFWTR). Debris objects in space refer to the collection of defunct objects orbiting the Earth. Examples of debris include non-operational satellites, rocket bodies, and fragments generated from explosions, collisions, or faulty payload assembly.

Loading next visibility...
Identifier
4743, 1970-025CS
Orbit
SSO
Country
Flag of USUS
Related business
Manufacturer
Unknown
Mission
Spacecraft
Bus & Motor
Unknown
Mass
Unknown
Launch date (UTC)
1970-04-08 (56 years ago)
Launch vehicle
Unknown
Launch site
Air Force Western Test Range (AFWTR)
Object type
Payload
Rocket body
Debris
Shape & HBR
Unknown shape, 0.1 m
Radar Cross Section
Medium (>0.1 m² and <1 m²)

Expand to show TLE details & history
Last TLE update: 2 days ago

TLE from 2 days ago
0 THORAD AGENA D DEB
1 04743U 70025CS  26171.19910550  .00000166  00000-0  29007-3 0  9993
2 04743  99.9015 250.5572 0034265 304.6799 111.9554 13.58412508773467
Epoch: 2026-06-20T04:46Z
TLE epoch observation values (Epoch: 2026-06-20T04:46:42.715Z)
Latitude
55.80489°
Longitude
-104.34561°
Altitude
1,060.239 km
Speed
7.322 km/s
True Right ascension
15h 42m 59s
True Declination
55° 39' 05"
Sunlit
Object was in daylight at epoch
Visualization orbit readout
Latitude
Unknown
Longitude
Unknown
Altitude
Unknown
Speed
Unknown
Apparent Right ascension
Unknown
Apparent Declination
Unknown
Sunlit
N/A
Visualization observer readout
Local Sidereal Time
23:20:02
Azimuth
Unknown
Elevation
Unknown
Doppler factor
Unknown
Orbital elements
Apogee altitude
1,064.182 km
Perigee altitude
1,013.354 km
Semi-major axis
7,416.905 km
Eccentricity
0.00343
Inclination
99.9015°
RAAN
250.5572°
Arg. of periapsis
304.6799°
True anomaly
112.31899°
Mean anomaly
111.9554°
Eccentric anomaly
112.13725°
Mean motion
3.39789 °/min
Orbital period
105.95 mins
BSTAR
0.00029007
Loading maneuver chart data...
Computing Atmospheric mass density...

Documentation

Showing up to 5 results
|